Find Starlink 4776

NORAD ID: 53837 Int'l Des: 2022-114 Owner: SPXS Country: US Constellation: starlink operational
LEOCIRCULAR

リアルタイム位置

3D地球を読み込み中...

Starlink 4776について

説明を読み込み中...

次回通過

Passes for default location (London). Set your location on the main map for personalized predictions.

高度履歴

Loading altitude history...

軌道要素

1 53837U 22114V 26127.03489742 .00001152 00000-0 90480-4 0 9995
2 53837 53.2189 41.9071 0001577 96.5671 263.5501 15.08829185201644
Epoch: May 7, 2026 • Age: 25 hours

現在のステータス

高度 559.4 km
速度 7.58 km/s
衛星直下点 -53.15°S, 60.17°E
打ち上げ日 Sep 19, 2022
運用期間 3.6 years
タイプ internet

技術仕様

分類 Payload
質量 305.00 kg
乾燥質量 290.00 kg
総質量 305.00 kg
長さ 0.20 m
直径 2.80 m
スパン 9.00 m
形状 Box + pan
製造者 SPXS
バスタイプ Starlink
フェーズステータス In Orbit
所有者/国 SPXS/US

Most Searched